Hourly Data Report for October 31, 2015

All times are specified in Local Standard Time (LST). Add 1 hour to adjust for Daylight Saving Time where and when it is observed.

BATHURST A
NEW BRUNSWICK

47°37'47.000" N
65°44'20.000" W
58.80 m
8100505
71574
ZBF

Download Data

Hourly Data (October 2015)
Hourly Data Report for October 31, 2015
Temp Definition
°C
Dew Point Temp Definition
°C
Rel Hum Definition
%
Wind Dir Definition
10's deg

Wind Spd Definition
km/h
Visibility Definition
km
Stn Press Definition
kPa
Hmdx Definition


Wind Chill Definition


Weather Definition


TIME
00:00 Legend Double Dagger 2.4 -7.0 50 30 27 24.1 99.98     LegendNANA
01:00 Legend Double Dagger 2.4 -7.3 49 29 19 24.1 100.12     LegendNANA
02:00 Legend Double Dagger 2.3 -6.6 52 31 18 24.1 100.25     Mainly Clear
03:00 Legend Double Dagger 2.3 -6.6 52 29 22 24.1 100.32     LegendNANA
04:00 Legend Double Dagger 1.8 -6.8 53 30 18 24.1 100.42     LegendNANA
05:00 Legend Double Dagger 1.5 -6.4 56 28 16 24.1 100.54     Mainly Clear
06:00 Legend Double Dagger 1.4 -6.5 56 29 17 24.1 100.65     LegendNANA
07:00 Legend Double Dagger 0.8 -6.3 59 29 18 24.1 100.72     LegendNANA
08:00 Legend Double Dagger 0.8 -6.3 59 29 18 24.1 100.78     Mostly Cloudy
09:00 Legend Double Dagger 1.0 -6.6 57 29 17 24.1 100.85     LegendNANA
10:00 Legend Double Dagger 2.8 -5.6 54 28 20 24.1 100.91     LegendNANA
11:00 Legend Double Dagger 4.0 -6.6 46 28 25 24.1 100.93     Mainly Clear
12:00 Legend Double Dagger 5.3 -5.7 45 27 21 24.1 100.92     LegendNANA
13:00 Legend Double Dagger 5.7 -6.2 42 30 18 24.1 100.95     LegendNANA
14:00 Legend Double Dagger 7.2 -6.5 37 28 21 24.1 100.92     Mostly Cloudy
15:00 Legend Double Dagger 7.4 -6.7 36 30 19 24.1 100.93     LegendNANA
16:00 Legend Double Dagger 6.3 -5.7 42 26 12 24.1 100.97     LegendNANA
17:00 Legend Double Dagger 5.4 -5.3 46 23 4 24.1 100.99     Cloudy
18:00 Legend Double Dagger 4.9 -4.9 49 26 10 24.1 101.08     LegendNANA
19:00 Legend Double Dagger 4.8 -5.6 47 24 4 24.1 101.10     LegendNANA
20:00 Legend Double Dagger 4.3 -4.7 52 26 6 24.1 101.07     Cloudy
21:00 Legend Double Dagger 3.0 -2.9 65 8 3 24.1 101.11     LegendNANA
22:00 Legend Double Dagger 2.5 -2.6 69 19 7 24.1 101.11     LegendNANA
23:00 Legend Double Dagger 2.3 -2.0 73 36 1 24.1 101.07     Cloudy

Notes on Data Quality.

Legend

  • E = Estimated
  • M = Missing
  • NA = Not Available
  • ‡ = Partner data that is not subject to review by the National Climate Archives
Date modified: